DELTA 1 DEB, 7045

Orbit data source: Space-Track

DELTA 1 DEB, 7045 is space debris in SSO originally from a launch on Tue, 06 Nov 1973 UTC launched from the Air Force Western Test Range (AFWTR). Debris objects in space refer to the collection of defunct objects orbiting the Earth. Examples of debris include non-operational satellites, rocket bodies, and fragments generated from explosions, collisions, or faulty payload assembly.

Loading next visibility...
Identifier
7045, 1973-086AM
Orbit
SSO
Last TLE update
4 hours ago
Origin
Manufacturer
Unknown
Mission
Spacecraft
Bus & Motor
Unknown
Mass
Unknown
Launch date (UTC)
1973-11-06 (52 years ago)
Launch vehicle
Unknown
Launch site
Air Force Western Test Range (AFWTR)
Object type
Payload
Rocket body
Debris
Shape & HBR
Unknown
Radar Cross Section
Medium (>0.1 m² and <1 m²)

Expand to show TLE details & history

TLE from 4 hours ago
0 DELTA 1 DEB
1  7045U 73086AM  25163.53959821 -.00000025  00000-0  18913-3 0  9992
2  7045 102.6112 174.7659 0076031 277.5758 240.8565 12.26125350302381
Epoch: 2025-06-12T12:57Z
TLE epoch observation values (Epoch: 2025-06-12T12:57:01.285Z)
Latitude
21.77252°
Longitude
-95.4937°
Altitude
1,598.031 km
Speed
7.059 km/s
True Right ascension
23h 59m 28s
True Declination
21° 40' 00"
Sunlit
Object was in daylight at epoch
Visualization orbit readout
Latitude
75.86171°
Longitude
17.43152°
Altitude
1,637.339 km
Speed
7.033 km/s
Apparent Right ascension
13h 17m 40s
Apparent Declination
38° 37' 35"
Sunlit
Object is in daylight
Visualization observer readout
Local Sidereal Time
02:51:58
Azimuth
18.421° NNE
Elevation
-8.547°
Doppler factor
1
Orbital elements
Apogee altitude
1,623.985 km
Perigee altitude
1,503.221 km
Semi-major axis
7,941.74 km
Eccentricity
0.0076
Inclination
102.6112°
RAAN
174.7659°
Arg. of periapsis
277.5758°
True anomaly
Unknown
Mean anomaly
240.8565°
Eccentric anomaly
Unknown
Mean motion
3.06669 °/min
Orbital period
117.39 mins
BSTAR
0.00018913
Loading maneuver chart data...
Loading SW <> Apogee altitude chart data...
Loading historical data...
Loading historical data...
Loading historical data...
Loading historical data...
Loading historical data...
Loading historical data...
Loading historical data...

DELTA 1 DEB Visibility forecast

Observer location: undefined°, undefined°

Span
Click to sort rows by Start time (UTC) header in descending order
Start Az.
Max El. time (UTC)
Max El. Az.
Max El.
End time (UTC)
End Az.
5 mins2025-06-12 16:37:27.077Z336.703° NNW2025-06-12 16:39:27.077Z323.298° NNW12.192°2025-06-12 16:42:27.077Z302.915° NW
8 mins2025-06-12 22:07:27.077Z68.845° E2025-06-12 22:10:27.077Z47.023° ENE15.802°2025-06-12 22:15:27.077Z12.126° NNE
16 mins2025-06-12 23:56:27.077Z143.182° SSE2025-06-13 00:04:27.077Z53.593° ENE42.244°2025-06-13 00:12:27.077Z347.535° N
13 mins2025-06-13 01:53:27.077Z212.189° SW2025-06-13 01:59:27.077Z261.353° W25.944°2025-06-13 02:06:27.077Z317.681° NNW
12 mins2025-06-13 12:16:27.077Z49.821° ENE2025-06-13 12:22:27.077Z99.054° ESE23.468°2025-06-13 12:28:27.077Z144.717° SSE
16 mins2025-06-13 14:10:27.077Z13.199° NNE2025-06-13 14:17:27.077Z307.919° NW43.59°2025-06-13 14:26:27.077Z211.149° SW
9 mins2025-06-13 16:07:27.077Z342.08° N2025-06-13 16:11:27.077Z312.133° NW17.561°2025-06-13 16:16:27.077Z276.91° WNW
|